Find Insat 2E

NORAD ID: 25666 Int'l Des: 1999-016 Owner: ISRO Country: IN operational
HEOCIRCULAR

Live-Position

3D-Globus wird geladen...

Über Insat 2E

Beschreibung wird geladen...

Nächste Überflüge

Passes for default location (London). Set your location on the main map for personalized predictions.

Höhenverlauf

Loading altitude history...

Zweizeiliger Elementsatz

1 25666U 99016A 26105.62128133 -.00000263 00000-0 00000+0 0 9991
2 25666 11.2334 40.8305 0010514 297.4328 243.3138 0.99662522 50816
Epoch: 15. Apr. 2026 • Age: 22 hours

Aktueller Status

Höhe 35996.9 km
Geschwindigkeit 3.07 km/s
Subsatellitenpunkt 6.46°N, 152.62°E
Startdatum 2. Apr. 1999
Alter 27 years
Typ other

Technische Details

Klassifizierung Payload
Masse 2550.00 kg
Trockenmasse 1146.00 kg
Gesamtmasse 2550.00 kg
Länge 2.30 m
Durchmesser 1.90 m
Spannweite 24.70 m
Form Box + Pan + Ant
Hersteller ISRO
Bus-Typ I2K
Phasenstatus In Orbit
Besitzer/Staat ISRO/IN

Most Searched